Weather Roundup
Issued by NWS Springfield, MO

Home | Current Version | Previous Version | Text Only | Print | Product List | Glossary On
Versions: 1 2 3 4 5 6 7 8 9 10 11 12 13 14 15 16 17 18 19 20 21 22 23 24 25 26 27 28 29 30 31 32 33 34 35 36 37 38 39 40 41 42 43 44 45 46 47 48 49 50
000
NZUS99 KSGF 201507
HRRSGF

HOURLY WEATHER
NATIONAL WEATHER SERVICE SPRINGFIELD MO
900 AM CST MON FEB 20 2017

......SGF CWA......

CITY           SKY/WX    TMP DP  RH WIND       PRES   REMARKS
SPRINGFIELD    CLOUDY    60  55  83 SE18G28   29.93R
JOPLIN         CLOUDY    62  61  96 S12       29.89S
WEST PLAINS    MOSUNNY   61  52  72 S9        30.04R
ROLLA          LGT RAIN  64  52  64 SE15G25   29.97S
OSAGE BEACH    MOSUNNY   65  52  62 S13G22    29.93F
BRANSON        PTSUNNY   61  57  88 SE9       29.97S

......SURROUNDING SGF CWA......

CITY           SKY/WX    TMP DP  RH WIND       PRES   REMARKS
CHANUTE        PTSUNNY   61  58  90 SE13      29.79F
PARSONS        MOSUNNY   61  58  90 SE6       29.80F
COFFEYVILLE    CLOUDY    61  59  93 SE14      29.80F
EMPORIA        CLOUDY    58  58 100 S7        29.81R
GROVE OK       PTSUNNY   63  61  94 SE7       29.89F
ROGERS AR      LGT RAIN  61  59  93 S10       29.95S
SILOAM SPRINGS CLOUDY    61  57  88 SE9       29.92F
HARRISON AR    PTSUNNY   64  58  80 SE14      29.98R
NEAR YELLVILLE PTSUNNY   64  54  68 E8        29.97F

......KANSAS AND MISSOURI......

CITY           SKY/WX    TMP DP  RH WIND       PRES   REMARKS
KANSAS CTY INT LGT RAIN  59  57  93 S17       29.82F
DOWNTOWN KC    LGT RAIN  61  57  87 S10G20    29.82F
COLUMBIA       MOSUNNY   67  54  63 S18G24    29.93S
SEDALIA        CLOUDY    66  53  63 S17       29.91R
ST JOSEPH      LGT RAIN  60  57  89 S13       29.82R FOG
ST LOUIS       PTSUNNY   60  51  72 SE12      30.04F
SPIRIT OF STL  MOSUNNY   61  54  77 SE5       30.02F
KIRKSVILLE     CLOUDY    59  55  87 SE15      29.91F
WICHITA        CLOUDY    56  54  93 S10       29.80S
TOPEKA         LGT RAIN  61  56  83 SE7       29.80S
OLATHE         LGT RAIN  58  57  97 S16       29.83F

......TENNESSEE......

CITY           SKY/WX    TMP DP  RH WIND       PRES   REMARKS
MEMPHIS        PTSUNNY   68  52  56 S10       30.09R
NASHVILLE      CLOUDY    56  50  80 CALM      30.18S

......ARKANSAS.......

CITY           SKY/WX    TMP DP  RH WIND       PRES   REMARKS
FAYETTEVILLE   CLOUDY    60  60 100 S8        29.95F
FT SMITH       LGT RAIN  62  58  86 SE6       29.94F
LITTLE ROCK    PTSUNNY   63  58  83 SE13      30.04S

......OKLAHOMA.......

CITY           SKY/WX    TMP DP  RH WIND       PRES   REMARKS
TULSA          CLOUDY    61  59  93 S14       29.84R
PONCA CITY     CLOUDY    58  53  84 S6        29.83R
MCALESTER      CLOUDY    58  54  86 SE8       29.91R
OKLAHOMA CITY  CLOUDY    55  53  93 SE9       29.86R

......IOWA............

CITY           SKY/WX    TMP DP  RH WIND       PRES   REMARKS
DES MOINES     CLOUDY    60  55  83 S10       29.83F
QUAD CITIES    CLOUDY    53  49  86 SE12      30.01S FOG

......ILLINOIS........

CITY           SKY/WX    TMP DP  RH WIND       PRES   REMARKS
QUINCY         CLOUDY    57  52  83 SE15      29.96F
CHICAGO        CLOUDY    52  47  83 S12       30.12F HAZE



USA.gov is the U.S. government's official web portal to all federal, state and local government web resources and services.